User: anonymous   Login
Location: Omaha
(41.2590°N, 95.9380°W)
Time: 07:06:53
(UTC-05:00)
Language:

DUCHIFAT 1 - Orbit

View from above orbital plane
View from above orbital plane
View from above satellite
View from above satellite

Ground track
Ground track

The orbit data is extracted from the following two-line orbital elements,

1 40021U 14033M   18141.73896463  .00000313  00000-0  38106-4 0  9998
2 40021  97.9167  60.4093 0011467 266.2452  93.7454 14.90293382213016
Epoch (UTC): 21 May 2018 17:44:06
Eccentricity: 0.0011467
inclination: 97.9167°
perigee height: 589 km
apogee height: 605 km
right ascension of ascending node: 60.4093°
argument of perigee: 266.2452°
revolutions per day: 14.90293382
mean anomaly at epoch: 93.7454°
orbit number at epoch: 21301

The dashed part of the orbit path shows where the satellite is in the earth's shadow,  

DLR